User: anonymous   Login
Location: Castro Valley
(37.6940°N, 122.0850°W)
Time: 21:50:19
(UTC-07:00)
Language:

PANSAT - Orbit

View from above orbital plane
View from above orbital plane
View from above satellite
View from above satellite

Ground track
Ground track

The orbit data is extracted from the following two-line orbital elements,

1 25520U 98064B   17204.14077802 +.00000856 +00000-0 +22250-4 0  9998
2 25520 028.4571 099.4835 0005241 044.1264 315.9748 15.28418237039486
Epoch (UTC): 23 July 2017 03:22:43
Eccentricity: 0.0005241
inclination: 28.4571°
perigee height: 477 km
apogee height: 484 km
right ascension of ascending node: 99.4835°
argument of perigee: 44.1264°
revolutions per day: 15.28418237
mean anomaly at epoch: 315.9748°
orbit number at epoch: 3948

The dashed part of the orbit path shows where the satellite is in the earth's shadow,  

DLR